Content
SEND FEEDBACK

Daily
Averages
Monthly
Summary
United States of America

INARAJAN, GUAM


Home > North America > United States > Guam
Elevation: 280 feet     Latitude: 13 18N     Longitude: 144 44E

WEATHER
 
SELECT A DAY
Number of Records: 354,148;   Date Range: 1/1/95 - 11/20/14
 
SHARE

PRINT THIS DATA

[ ← Previous Day ]
WEATHER ALMANAC - DECEMBER 16, 2013
[ Next Day → ]
[ °C ]   °F
Weather ElementAverageHighLow
Temperature79.4 °F84 °F (12:58 pm)76.5 °F (1:58 am)
Dewpoint75.1 °F77 °F (1:20 am)73 °F (9:58 pm)
Humidity86.9 %100 % (1:35 am)73 % (11:58 am)
Barometer29.83 in29.87 in (12:29 am)29.76 in (2:58 pm)
Wind Speed16 mph23 mph (5:08 am)
Wind Gust28.8 mph (4:58 am)
Weather ElementAverage
Visibility9.8 mi
Wind DirectionENE (58.5 °)

Weather ElementTotal
Precipitation0.04 in
Cooling Degree Days15.3 (Base 65)
Growing Degree Days30.3 (Base 50)
Averaged from 65 records on December 16, 2013
WEATHER CONDITIONS BREAKOUT
WIND DIRECTION BREAKOUT
WEATHER BY HOUR - DECEMBER 16, 2013
[ °C ]   °F
Local TimeTemperatureDewpointHumidityBarometerVisibilityWind DirectionWind SpeedGust SpeedPrecipitationEventsConditions
12:29 AM78.8 °F75.2 °F89 %29.87 in10.0 miENE (70°)17.3 mphPartly Cloudy
12:58 AM78.6 °F76.5 °F93 %29.84 in10.0 miENE (60°)17.3 mph0.00 inPartly Cloudy
1:20 AM78.8 °F77.0 °F94 %29.86 in7.0 miENE (60°)17.3 mphRainHeavy Rain
1:25 AM78.8 °F77.0 °F94 %29.86 in7.0 miNE (50°)20.7 mphRainLight Rain
1:35 AM77.0 °F77.0 °F100 %29.86 in9.0 miNE (50°)15.0 mphLight Drizzle
1:40 AM77.0 °F77.0 °F100 %29.86 in9.0 miENE (60°)15.0 mphLight Drizzle
1:45 AM77.0 °F75.2 °F94 %29.86 in7.0 miENE (60°)18.4 mph23.0 mphRainLight Rain
1:50 AM77.0 °F75.2 °F94 %29.85 in7.0 miENE (60°)20.7 mph23.0 mphRainLight Rain
1:55 AM77.0 °F75.2 °F94 %29.85 in9.0 miNE (50°)18.4 mphLight Drizzle
1:58 AM76.5 °F75.4 °F96 %29.82 in10.0 miENE (60°)16.1 mph0.03 inLight Drizzle
1:59 AM77.0 °F75.2 °F94 %29.85 in10.0 miENE (60°)15.0 mphPartly Cloudy
2:53 AM78.8 °F77.0 °F94 %29.83 in10.0 miENE (60°)17.3 mph25.3 mphRainLight Rain
2:58 AM77.7 °F75.2 °F92 %29.81 in9.0 miEast (90°)12.7 mph25.3 mph0.00 inRainLight Rain
3:09 AM77.0 °F75.2 °F94 %29.83 in10.0 miENE (60°)13.8 mphScattered Clouds
3:19 AM77.0 °F77.0 °F100 %29.83 in10.0 miENE (60°)16.1 mph21.9 mphMostly Cloudy
3:24 AM78.8 °F75.2 °F89 %29.83 in10.0 miENE (60°)16.1 mphMostly Cloudy
3:29 AM78.8 °F75.2 °F89 %29.82 in10.0 miENE (60°)16.1 mphScattered Clouds
3:34 AM78.8 °F75.2 °F89 %29.82 in10.0 miENE (60°)17.3 mphMostly Cloudy
3:39 AM78.8 °F75.2 °F89 %29.82 in10.0 miENE (60°)19.6 mphScattered Clouds
3:44 AM78.8 °F77.0 °F94 %29.82 in10.0 miENE (60°)20.7 mphMostly Cloudy
3:54 AM77.0 °F75.2 °F94 %29.82 in10.0 miENE (60°)17.3 mphScattered Clouds
3:58 AM77.0 °F74.5 °F92 %29.81 in10.0 miENE (60°)15.0 mph0.01 inScattered Clouds
4:58 AM77.9 °F76.8 °F96 %29.81 in10.0 miENE (70°)21.9 mph28.8 mphScattered Clouds
5:08 AM77.0 °F77.0 °F100 %29.83 in10.0 miEast (80°)23.0 mph27.6 mphMostly Cloudy
5:13 AM77.0 °F75.2 °F94 %29.83 in10.0 miENE (70°)18.4 mph26.5 mphMostly Cloudy
5:58 AM77.7 °F75.4 °F92 %29.81 in10.0 miENE (70°)15.0 mphScattered Clouds
6:38 AM78.8 °F75.2 °F89 %29.84 in10.0 miENE (70°)15.0 mphMostly Cloudy
6:43 AM78.8 °F75.2 °F89 %29.84 in10.0 miENE (70°)16.1 mphMostly Cloudy
6:58 AM78.3 °F75.6 °F91 %29.81 in10.0 miENE (60°)15.0 mphPartly Cloudy
7:58 AM79.5 °F74.8 °F86 %29.83 in10.0 miENE (60°)12.7 mphPartly Cloudy
8:18 AM80.6 °F75.2 °F84 %29.86 in10.0 miENE (60°)17.3 mphMostly Cloudy
8:28 AM80.6 °F75.2 °F84 %29.87 in10.0 miENE (60°)17.3 mphScattered Clouds
8:58 AM81.0 °F75.0 °F82 %29.84 in10.0 miENE (70°)16.1 mphPartly Cloudy
9:58 AM83.1 °F75.2 °F77 %29.84 in10.0 miENE (70°)17.3 mphClear
10:58 AM82.9 °F75.6 °F78 %29.83 in10.0 miEast (80°)16.1 mphPartly Cloudy
11:58 AM83.7 °F74.1 °F73 %29.85 in10.0 miEast (80°)17.3 mphClear
12:58 PM84.0 °F75.0 °F74 %29.81 in10.0 miENE (70°)15.0 mphScattered Clouds
1:58 PM83.5 °F75.0 °F76 %29.78 in10.0 miNE (50°)15.0 mphPartly Cloudy
2:58 PM83.3 °F74.8 °F76 %29.76 in10.0 miNE (50°)15.0 mphPartly Cloudy
3:28 PM82.4 °F75.2 °F79 %29.80 in10.0 miNE (50°)13.8 mphMostly Cloudy
3:38 PM82.4 °F73.4 °F74 %29.79 in10.0 miNE (50°)16.1 mphScattered Clouds
3:58 PM82.9 °F74.5 °F75 %29.77 in10.0 miNE (50°)16.1 mphScattered Clouds
4:53 PM82.4 °F73.4 °F74 %29.81 in10.0 miNE (50°)12.7 mphMostly Cloudy
4:58 PM82.4 °F73.4 °F74 %29.78 in10.0 miNE (50°)17.3 mphMostly Cloudy
5:58 PM80.4 °F74.7 °F83 %29.79 in10.0 miNE (50°)15.0 mphMostly Cloudy
6:28 PM80.6 °F75.2 °F84 %29.82 in10.0 miNE (50°)13.8 mphOvercast
6:33 PM80.6 °F75.2 °F84 %29.82 in10.0 miNE (50°)15.0 mphOvercast
6:58 PM79.9 °F74.1 °F82 %29.81 in10.0 miNE (50°)13.8 mphScattered Clouds
7:03 PM80.6 °F75.2 °F84 %29.83 in10.0 miNE (50°)15.0 mphMostly Cloudy
7:08 PM80.6 °F75.2 °F84 %29.83 in10.0 miNE (50°)13.8 mphMostly Cloudy
7:13 PM80.6 °F75.2 °F84 %29.83 in10.0 miNE (50°)15.0 mphMostly Cloudy
7:38 PM80.6 °F75.2 °F84 %29.84 in10.0 miENE (60°)15.0 mphMostly Cloudy
7:53 PM78.8 °F73.4 °F83 %29.84 in10.0 miENE (60°)13.8 mphScattered Clouds
7:58 PM79.5 °F73.4 °F81 %29.81 in10.0 miNE (50°)16.1 mphScattered Clouds
8:53 PM78.8 °F73.4 °F83 %29.86 in10.0 miNE (50°)16.1 mphMostly Cloudy
8:58 PM79.5 °F73.8 °F82 %29.83 in10.0 miENE (60°)16.1 mphMostly Cloudy
9:03 PM78.8 °F73.4 °F83 %29.86 in10.0 miNE (50°)16.1 mphScattered Clouds
9:58 PM78.8 °F73.0 °F82 %29.82 in10.0 miNE (50°)15.0 mphClear
10:58 PM79.0 °F74.1 °F85 %29.82 in10.0 miNE (50°)13.8 mphScattered Clouds
11:08 PM78.8 °F73.4 °F83 %29.85 in10.0 miNE (50°)13.8 mphMostly Cloudy
11:23 PM78.8 °F75.2 °F89 %29.85 in10.0 miNE (50°)12.7 mphMostly Cloudy
11:28 PM78.8 °F75.2 °F89 %29.85 in10.0 miNE (50°)13.8 mphMostly Cloudy
11:33 PM78.8 °F75.2 °F89 %29.85 in10.0 miNE (50°)13.8 mphMostly Cloudy
11:43 PM78.8 °F75.2 °F89 %29.85 in10.0 miNE (50°)13.8 mphScattered Clouds
11:58 PM79.2 °F74.8 °F87 %29.81 in10.0 miNE (50°)15.0 mphScattered Clouds
Hourly data recorded from PGUA, located miles away from Inarajan, Guam







STORIES FROM OUR PARTNERS